Find Starlink 4431

NORAD ID: 53486 Int'l Des: 2022-099 Owner: SPXS Country: US Constellation: starlink operational
LEOCIRCULARRETROGRADESSO

現在のビュー

3D地球を読み込み中...

About Starlink 4431

Starlink 4431 (NORAD 53486) is a starlink constellation satellite (v1.5) launched Aug 12, 2022 by SPXS of US. It operates in LEO, CIRCULAR, RETROGRADE, SSO orbit with a mass of 300.00 kg.

次回通過

Passes for default location (London). Set your location on the main map for personalized predictions.

高度履歴

Loading altitude history...

軌道要素

1 53486U 22099X 26228.60112477 -.00001360 00000-0 -35350-4 0 9998
2 53486 97.5693 355.5938 0002079 113.1373 247.0091 15.36968271220546
Epoch: Aug 16, 2026 • Age: 5 hours

現在のステータス

高度 464.6 km
遠地点 / 近地点 N/A
速度 7.64 km/s
衛星直下点 61.07°N, 86.04°E
打ち上げ日 Aug 12, 2022
運用期間 4 years
タイプ internet

技術仕様

分類 Payload
質量 300.00 kg
乾燥質量 275.00 kg
総質量 300.00 kg
長さ 0.20 m
直径 2.80 m
スパン 9.00 m
形状 Box + pan
製造者 SPXS
バスタイプ Starlink
フェーズステータス In Orbit
所有者/国 SPXS/US

Most Searched